TimeCST,TemperatureF,Dew PointF,Humidity,Sea Level PressureIn,VisibilityMPH,Wind Direction,Wind SpeedMPH,Gust SpeedMPH,PrecipitationIn,Events,Conditions,WindDirDegrees,DateUTC
12:07 AM,57.2,46.4,67,29.99,10.0,North,12.7,19.6,N/A,,Overcast,10,2012-12-04 06:07:00
12:53 AM,57.9,44.1,60,30.01,10.0,North,10.4,18.4,N/A,,Overcast,10,2012-12-04 06:53:00
1:53 AM,59.0,44.1,58,30.03,10.0,North,12.7,20.7,N/A,,Overcast,10,2012-12-04 07:53:00
2:53 AM,57.9,42.1,56,30.06,10.0,North,9.2,19.6,N/A,,Scattered Clouds,360,2012-12-04 08:53:00
3:53 AM,55.9,39.0,53,30.08,10.0,NNE,11.5,24.2,N/A,,Clear,20,2012-12-04 09:53:00
4:53 AM,55.0,37.0,51,30.12,10.0,NNE,10.4,18.4,N/A,,Clear,20,2012-12-04 10:53:00
5:53 AM,54.0,35.1,49,30.14,10.0,North,10.4,18.4,N/A,,Clear,10,2012-12-04 11:53:00
6:53 AM,54.0,34.0,47,30.19,10.0,North,11.5,17.3,N/A,,Clear,360,2012-12-04 12:53:00
7:53 AM,54.0,32.0,43,30.22,10.0,North,12.7,19.6,N/A,,Clear,10,2012-12-04 13:53:00
8:53 AM,54.0,30.9,41,30.26,10.0,North,11.5,18.4,N/A,,Clear,10,2012-12-04 14:53:00
9:53 AM,57.0,30.9,37,30.28,10.0,NNE,10.4,19.6,N/A,,Clear,20,2012-12-04 15:53:00
10:53 AM,59.0,30.0,33,30.30,10.0,NNE,9.2,18.4,N/A,,Clear,30,2012-12-04 16:53:00
12:53 PM,62.1,28.0,28,30.28,10.0,North,11.5,18.4,N/A,,Clear,360,2012-12-04 18:53:00
1:53 PM,64.9,25.0,22,30.25,10.0,NNE,9.2,-,N/A,,Clear,20,2012-12-04 19:53:00
2:53 PM,64.9,24.1,21,30.26,10.0,NNE,11.5,-,N/A,,Clear,30,2012-12-04 20:53:00
3:53 PM,64.0,21.0,19,30.27,10.0,NNE,10.4,19.6,N/A,,Clear,20,2012-12-04 21:53:00
4:53 PM,60.1,24.1,25,30.28,10.0,North,6.9,-,N/A,,Clear,10,2012-12-04 22:53:00
5:53 PM,51.1,25.0,36,30.28,10.0,Calm,Calm,-,N/A,,Clear,0,2012-12-04 23:53:00
6:53 PM,46.0,30.0,54,30.30,10.0,Calm,Calm,-,N/A,,Clear,0,2012-12-05 00:53:00
7:53 PM,43.0,28.9,58,30.31,10.0,Calm,Calm,-,N/A,,Clear,0,2012-12-05 01:53:00
8:53 PM,41.0,30.9,67,30.33,10.0,Calm,Calm,-,N/A,,Clear,0,2012-12-05 02:53:00
9:53 PM,37.0,28.9,73,30.34,10.0,Calm,Calm,-,N/A,,Clear,0,2012-12-05 03:53:00
10:53 PM,37.9,28.9,70,30.34,10.0,Calm,Calm,-,N/A,,Clear,0,2012-12-05 04:53:00
11:53 PM,37.0,28.9,73,30.34,10.0,Calm,Calm,-,N/A,,Clear,0,2012-12-05 05:53:00